Location: FWAS Thompsen Ranch
(33.4402°N, 97.5607°W)
Time: 05:57:35
(UTC-05:00)

Envisat - Visible Passes

Search period start: 18 July 2018 00:00
Search period end: 28 July 2018 00:00
Orbit: 764 x 766 km, 98.2° (Epoch: 18 July)

Date Brightness Start Highest point End Pass type
(mag) Time Alt. Az. Time Alt. Az. Time Alt. Az.
18 Jul 4.4 21:20:29 10° SSW 21:25:12 40° W 21:29:59 10° NNW visible
20 Jul 5.3 21:47:04 10° SW 21:50:54 22° W 21:54:46 10° NW visible
21 Jul 3.9 21:09:06 10° S 21:14:01 52° W 21:18:59 10° NNW visible
22 Jul 5.9 22:15:16 10° WSW 22:16:41 11° W 22:18:07 10° WNW visible
23 Jul 5.0 21:35:23 10° SSW 21:39:41 28° W 21:44:00 10° NW visible
24 Jul 3.4 20:57:48 10° S 21:02:51 68° WSW 21:07:55 10° NNW visible
25 Jul 5.7 22:02:36 10° SW 22:05:25 15° W 22:08:15 10° WNW visible
26 Jul 4.5 21:23:50 10° SSW 21:28:28 36° W 21:33:08 10° NNW visible
